Tracking 18980 objects as of 22-Feb-2018
HD Live streaming from Space Station
objects crossing your sky now

FENGYUN 1C DEB

Track FENGYUN 1C DEB now!
10-day predictions


NORAD ID: 33681
Int'l Code: 1999-025DFS
Perigee: 836.3 km
Apogee: 987.1 km
Inclination: 99.3 °
Period: 103.1 minutes
Semi major axis: 7282 km
RCS: 0.0042 m2 (small)
Launch date: May 10, 1999
Source: People's Republic of China (PRC)
Launch site: Taiyaun Space Center, China (TSC)

Note: This is SATELLITE DEBRIS
aabbcc
Your satellite tracking list
Your tracking list is empty




NASA's NSSDC Master Catalog

Two Line Element Set (TLE):
1 33681U 99025DFS 18036.99525000  .00000080  00000-0  87265-4 0  9994
2 33681  99.3211  44.2818 0103515 324.3117  91.1206 13.96902510502575
Source of the keplerian elements: AFSPC